Uncategorized

2021 Ratings: Ottawa Hills

How Are Speed Ratings Calculated?

Girls Adjustment: -19
Boys Adjustment: -13

GradeNameTimeTeamRating
11Allie Arnsman18:15.0Grandville161.3
11Allison Cornell18:33.2Forest Hills Northern155.3
12Adit Dau18:45.6Grand Rapids Ottawa Hills151.1
10Selma Anderson18:52.3Grand Rapids Ottawa Hills148.9
9Elena Figueroa18:52.5St. Joseph148.8
9Jordyn Klaasen18:57.1Zeeland West147.3
10Clara James-Heer18:59.7Forest Hills Central146.4
10Natalie VanOtteren18:59.8Grand Rapids Christian146.4
11Annika Sandman19:12.8Lowell142.1
9Valerie Beeck19:21.4Grand Haven139.2
10Mia Bateson19:21.9Forest Hills Central139.0
10Allison Kuzma19:33.4Zeeland East135.2
11Sophia Rhein19:35.6Traverse City St. Francis134.5
11Maya Guikema19:40.2Jenison132.9
10Emily Tomes19:40.8Grand Rapids Catholic Central132.7
12Eliza Phares19:42.5Portage Central132.2
10Peyton Ludwig19:48.0Forest Hills Central130.4
11Katrina Sandman19:49.7Lowell129.8
12Mackenzie Hill19:55.2Plainwell127.9
12Riley Mullen19:56.3St. Joseph127.6
12Jillian Tunnicliff19:56.9St. Joseph127.4
9Betsy Skendzel20:00.0Traverse City St. Francis126.3
10Camille Dahlke20:03.1Rockford125.3
9Grace Slocum20:05.6Traverse City St. Francis124.5
11Bella Hoffer20:07.5Zeeland West123.8
9Gracey Barry20:08.0Grand Haven123.7
12Leanne Krombeen20:12.3Grandville Calvin Christian122.2
11Cadence Schultz20:13.3East Kentwood121.9
9Devin Fisher20:13.3Rockford121.9
10Grace Kelley20:13.8St. Joseph121.7
10Payton Hosley20:13.9Grand Haven121.7
11Grace Pettit20:17.2Plainwell120.6
12Lilly Weirich20:19.2Rockford119.9
12Maggie Duba20:23.4Grand Rapids West Catholic118.5
12Gabriella Wingard20:25.4North Muskegon117.9
10Amanda Williams20:25.6Portage Central117.8
9Alanna Clague20:31.1Portage Central116.0
10Cecilia Ruchti20:32.2St. Joseph115.6
12Hannah Roark20:34.8Zeeland West114.7
12Anna Tracey20:36.2Rockford114.3
12Madison Rempalski20:36.0Grand Rapids Northview113.7
10Hayden Bolter20:38.5Forest Hills Central113.5
10Izzy Fazio20:39.0Forest Hills Northern113.3
12Mara Sweeney20:39.3Rockford113.2
12Audrey DeSchryver20:41.5Forest Hills Northern112.5
12Brooke Myers20:42.7Forest Hills Northern112.1
10Naomi Nelson20:43.8Grand Rapids Christian111.7
11Jonathah Bouwman20:43.8Grandville Calvin Christian111.7
10Payton Holtz20:45.3Grand Rapids Christian111.2
12Bailey Ewen20:46.2Rockford110.9
11Keira Sandman20:48.5Lowell110.2
10Katherine Cook20:51.0Grand Rapids Northview109.3
9Addison Smith20:51.6Grand Haven109.1
10Addison Begeman20:51.8Portage Central109.1
11Ana Dunfee20:54.2Kalamazoo Loy Norrix108.3
12Rachel Marco20:55.6Forest Hills Central107.8
12Rachael Barone21:01.2Jenison106.0
9Lauren Tooley21:01.9Portage Central105.7
11Abby Martin21:03.0Hudsonville105.3
9Abbey Scholma21:05.4Hudsonville104.5
9Clare Mathison21:06.1Forest Hills Central104.3
9Natalie Lewis21:09.5Rockford103.2
9Gwen Lamport21:09.6Forest Hills Central103.1
11Kiann Schmottlach21:13.6Forest Hills Northern101.8
9Sofia Bogard21:14.0Kalamazoo Loy Norrix101.7
11Lily LaBurn21:15.6Holland Black River101.1
9Samantha McClelland21:15.8Forest Hills Northern101.1
11Sarah Etcher21:15.9Grandville101.1
10Kate Wayne21:16.5Hudsonville100.8
11Hayley Heinrich21:17.2Zeeland East100.6
11Elise Conkel21:21.2Hudsonville99.3
12Halle Bovee21:22.6Grand Haven98.8
12Hayli Fagan21:25.5Whitehall97.8
11Olivia Ippel21:25.7St. Joseph97.8
11Anna Triezenberg21:28.5Grand Rapids Christian96.8
10Lindsey Tubergen21:29.8Hudsonville96.4
11Maggie Otto21:30.0Jenison96.3
9Randi Pennington21:32.9Jenison95.4
9Klea Verstrate21:33.0Hudsonville95.3
12Ariana Bruininks21:33.3Portage Central95.2
11Katelyn LaRue21:33.6Grand Rapids Christian95.1
11Carolyn Bennett21:35.4North Muskegon94.5
10Madelyn Vande Bunte21:37.0Jenison94.0
11Lily Teitsma21:38.4Grand Rapids Christian93.5
12Gracie Erdman21:39.0Zeeland West93.3
12Paige Glass21:40.5Hudsonville92.8
12Mary Huizingh21:41.1Zeeland East92.6
10Addie Grill21:42.6Zeeland East92.1
11Natalie Allshouse21:45.0Rockford91.3
9Emma Smith21:45.8Rockford91.1
12Reese Ensing21:47.4McBain90.5
11Ali Junewick21:48.0Grand Rapids West Catholic90.3
12Samantha Wells21:48.6Zeeland West90.1
12Alicia Sabin21:50.0Hudsonville89.7
12Jenna Pegman21:50.5Grand Rapids Christian89.5
11Jessica Harney21:50.7Rockford89.4
12Emalee Postma21:53.8Zeeland East88.4
11Caroline Stewart21:54.0Forest Hills Northern88.3
10Alana Simmons21:54.9Portage Central88.0
10Jacob Williams21:55.7Portage Central87.8
9Olivia VerBeek21:56.2Jenison87.6
9Maggie Ruffini21:56.7Forest Hills Northern87.4
11Margot Frendt21:57.2Grand Haven87.3
10Leanna Barnett21:58.0Rockford87.0
10Maddie Gallagher21:58.3Traverse City St. Francis86.9
10Jordyn Harrington21:59.3Grandville86.6
10Lily LeSarge22:00.4Grand Rapids West Catholic86.2
10Laurel Tolliver22:00.4Grand Haven86.2
9Naomi Diekman22:02.0Jenison85.7
11Jessie Postma22:02.6Hudsonville Unity Christian85.5
10Gwendalynn Rickard22:03.7Big Rapids85.1
9Lauren Prokopec22:04.8Grand Haven84.7
10Margot Hagerty22:06.6Traverse City St. Francis84.1
11Ariana Treat22:06.9Whitehall84.0
9Megan Lillie22:07.0Lowell84.0
11Elise Meister22:07.9Zeeland East83.7
10Madison Werk-Spitzer22:09.1St. Joseph83.3
11Sabrina Mills22:09.7Allegan83.1
10Rylee Duffing22:10.2Traverse City St. Francis82.9
11Reaghan Babrick22:11.9Kalamazoo Loy Norrix82.4
12Chloe Fornetti22:12.0East Kentwood82.3
9Anna Sybenga22:13.3Forest Hills Central81.9
10Jade Murdoch22:15.8St. Joseph81.1
10Campbell Hansen22:17.3Grand Rapids Ottawa Hills80.6
9Mary Masserant22:17.5Traverse City St. Francis80.5
10Reiel Ghiglia22:19.2Hudsonville79.9
11Kennedy Hynde22:21.0Muskegon Reeths-Puffer79.3
11Sarah Timmer22:21.4Grand Rapids Christian79.2
11Nora Hoekert22:23.8Rockford78.4
9Anna Krampe22:24.6Forest Hills Central78.1
9Emma Taggett22:26.4Plainwell77.5
11Lucy Cusack22:28.2Grand Rapids Catholic Central76.9
9Claire O’Boyle22:28.7Lowell76.8
12Grace Ruimveld22:32.8Plainwell75.4
12Annaliese Bol22:32.9Kalamazoo Loy Norrix75.4
12Lily Strelecki22:33.7Jenison75.1
9Lauren Molag22:33.7Zeeland West75.1
11Allison Tate22:34.6Whitehall74.8
9Claire Vos22:35.1Plainwell74.6
12Claire Bertrand22:35.3Grand Rapids Catholic Central74.6
12Grace Lockhart22:36.2Muskegon Reeths-Puffer74.3
12Torionna Waterman22:36.3East Kentwood74.2
10Shae Brodie22:37.1Grand Haven74.0
9Reese Hansen22:37.5Grand Rapids Ottawa Hills73.8
11Steph Dodd22:37.9Zeeland West73.7
11Eva Shinabery22:39.1Muskegon Reeths-Puffer73.3
12Autumn Wheeler22:39.2Allegan73.3
10Izzy Phelps22:40.6Grand Haven72.8
10Tessa Rindfliesch22:41.1Zeeland West72.6
10Amelia Isackson22:41.5Kalamazoo Loy Norrix72.5
12Jamara Harper22:42.4Lowell72.2
9Elizabeth Kunzi22:42.5Hudsonville72.2
12Hailey Fike22:43.9Rockford71.7
12Kate Langworthy22:44.0Big Rapids71.7
10Cassidy Sanders22:45.9Grand Rapids Northview71.0
11Samantha VanDort22:46.7Zeeland West70.8
10Abby Druelle22:47.2Grand Rapids West Catholic70.6
11Gracey Bento22:47.7East Kentwood70.4
12Olivia Brodie22:48.7Portage Central70.1
10Ava Pomaranski22:48.8Traverse City St. Francis70.1
11Allie Groenenboom22:49.3Grand Rapids Christian69.9
12Lauren Hillyer22:49.3Forest Hills Northern69.9
11Lindsey Peterson22:49.4Zeeland West69.9
12Mackenzie Schilthuis22:50.5Hudsonville Unity Christian69.5
9Macy Daniels22:50.9Kalamazoo Loy Norrix69.4
12Evelyn Grimm22:51.6Rockford69.1
12Alaina Dokter22:54.2Holland Christian68.3
11Maggie McKeiver22:54.4Grand Rapids West Catholic68.2
12Emma Kern22:54.4Holland Christian68.2
12Sarah Schloff22:55.1Holland Christian68.0
12Shelby Flory22:55.8Hudsonville67.7
11Nathalie Strockis22:57.2Grand Rapids West Catholic67.3
10Raya Mergen-Henry23:00.0Plainwell66.4
10Kloe Kimbrell23:00.5Caledonia66.2
11Erika Quibell23:00.8East Kentwood66.1
9Cece Frendt23:01.9Grand Haven65.7
9Lauren Tower23:02.1Jenison65.6
12Ella Schuler23:03.8Caledonia65.1
9Kaitlyn Harris23:03.9St. Joseph65.0
11Tessa Bruizeman23:06.1Zeeland West64.3
10Emy Smith23:06.4Zeeland West64.2
11Kailym Tuggle23:06.4Grand Haven64.2
9Addison Rozema23:06.4Hudsonville64.2
10Claire Smith23:07.2Grand Rapids West Catholic63.9
9Audrey Durham23:08.9Zeeland East63.4
10Oliviah Malloy23:11.4Big Rapids62.5
12Katelyn Lewis23:11.5Zeeland East62.5
12Lauren Staal23:12.4Grandville Calvin Christian62.2
11Lauren Halverson23:15.0Forest Hills Northern61.3
10Emelia VanDerWoude23:16.3Portage Central60.9
9Maurine Schneider23:17.0Grand Rapids Catholic Central60.7
12Emberlynn DeVries23:19.4Grandville Calvin Christian59.9
11Lauren Miller23:20.4Plainwell59.5
11Sydney Guyot23:20.5Hudsonville59.5
9Chloe DeRidder23:21.3Grandville59.2
10Leah Vanspronsen23:22.0Grandville59.0
12Zoey Deam23:24.2Big Rapids58.3
9Melana Karsten23:24.6Rockford58.1
10Lauren Jousma23:25.3Grandville Calvin Christian57.9
10Cameron Miller23:26.0Kalamazoo Loy Norrix57.7
10Lilly Woytsek23:27.1St. Joseph57.3
9Maya VanSolkema23:27.3Hudsonville Unity Christian57.2
12Emma Heidema23:28.8Hudsonville56.7
12Savi Norinh23:29.4Zeeland East56.5
12Haniya Frayer23:29.4Kalamazoo Loy Norrix56.5
11Megan Ahrens23:29.9Forest Hills Northern56.4
9Corina Mitteer23:30.0Whitehall56.3
9Kayla Mabry23:32.0Rockford55.7
12Kelsey Kirkbride23:34.5Caledonia54.8
10Greta Hondorp23:38.5Zeeland West53.5
12Ryann Jibson23:39.0Whitehall53.3
12Neva Hundt23:39.3Whitehall53.2
11Adriana Byker23:39.4Hudsonville Unity Christian53.2
9Abi Albright23:40.3Grand Haven52.9
10Robyn Tatko23:40.8Grand Rapids Christian52.8
9Lola Bryce23:41.2Grandville Calvin Christian52.6
11Addison Essebaggers23:43.7Hudsonville Unity Christian51.8
12Lexy Gregory23:43.8Forest Hills Northern51.7
12Ava Tatko23:43.9Grand Rapids Christian51.7
11Julia Kozal23:44.2Forest Hills Northern51.6
10Anna Roest-Hanson23:44.7Grand Haven51.4
11Claire Caplea23:47.2St. Joseph50.6
9Rylynn Hein23:48.2St. Joseph50.3
9Mila Schneider23:49.6Rockford49.8
11Liliana Wilstermann23:50.0Grand Rapids Christian49.7
9Molly Padilla23:51.3Grand Rapids Christian49.2
9Lizzy Carillo23:52.0Grandville49.0
11Nora Haviland23:52.7Forest Hills Northern48.8
9Hannah Erlandson23:53.1Plainwell48.6
11Haylie Haner23:53.3Big Rapids48.6
9Maddie Bruxvoort23:54.8Hudsonville Unity Christian48.1
10Lilly Weesies23:56.0Grandville Calvin Christian47.7
10Audrey Howell23:58.2Caledonia46.9
10Sylvie Mulder23:59.6Holland Christian46.5
11Alyssa Gerritsma24:00.9Holland Christian46.0
10Abbie Buteyn24:01.5Grandville Calvin Christian45.8
12Alison Doerr24:02.5Grand Haven45.5
11Camille Wolbrink24:03.9Holland Black River45.0
10Annie Paulson24:04.4Traverse City St. Francis44.9
12Ella Cusack24:04.9Grand Rapids Catholic Central44.7
12Grace Bruins24:05.2Hudsonville Unity Christian44.6
11Marissa DeWitte24:05.5Hudsonville44.5
12Kaylee Byrne24:08.0Lowell43.7
9Bella Ebright24:08.9Grand Rapids Ottawa Hills43.4
10Delaney Hendricks24:08.9Grand Rapids Northview43.4
12Laura Robotham24:09.4Caledonia43.2
10Rachel Ryan24:10.4Grand Haven42.9
11Alyson Vikstrom24:12.5Holland Christian42.2
12Isabel Toole24:14.3Grand Rapids Northview41.6
9Audrey Huff24:14.8Grandville41.4
11Lainey Roth24:15.2Grand Rapids West Catholic41.3
11Sylvia Sandman24:15.2Rockford41.3
9Lily Frendt24:15.8Grand Haven41.1
10Nora Ballard24:17.3Holland Black River40.6
9Tessa Minnear24:17.8Hudsonville40.4
10Anika Blazic24:18.3Rockford40.2
10Amelia Schihl24:19.1McBain40.0
9Chelsi Eisenga24:20.0McBain39.7
9Taryn Landers24:20.6Hudsonville Unity Christian39.5
11Maria Curcuru24:20.8Forest Hills Northern39.4
10Kayla Valdes24:21.2St. Joseph39.3
9Sophie Gable24:22.9St. Joseph38.7
10Katie Landstra24:23.4Hudsonville Unity Christian38.5
11Mariah Martinez24:23.7Grandville38.4
12Rebekah Sweany24:25.6Muskegon Reeths-Puffer37.8
10Anika Bouwman24:27.0Grand Rapids Christian37.3
12Olivia Veersma24:27.4St. Joseph37.2
12Claire Van Duinen24:28.8Holland Christian36.8
9Ellie Fischer24:30.0St. Joseph36.3
12Emily Danks24:31.6Rockford35.8
9Noelle Nienhuis24:32.3Hudsonville Unity Christian35.6
9Anna Miedema24:34.4Kalamazoo Loy Norrix34.9
10Lola Van Stedum24:34.4Hudsonville34.9
9Brianna Nixon24:36.2Hudsonville34.3
11Marissa Lunt24:37.4Forest Hills Central33.9
10Abby Nuiver24:37.9Hudsonville Unity Christian33.7
9Alexa Elliot24:37.9Caledonia33.7
11Elise Ferguson24:38.0Grandville33.7
12Hannah Nienhuis24:38.1Zeeland East33.6
11Jocelyn MacFarlane24:41.3Zeeland East32.6
10Rowan Ensing24:41.4McBain32.5
9Maya Padisak24:42.2Traverse City St. Francis32.3
11Madison Parmley24:43.1Whitehall32.0
10Anna Lindstrom24:43.6Grand Rapids Christian31.8
12Delaney Schultheiss24:43.6Kalamazoo Loy Norrix31.8
9Alayna Godfrey24:43.7East Kentwood31.8
9Olivia Harris24:44.1St. Joseph31.6
12Aliyah Harned24:44.3Holland Christian31.6
12Bebe Mulder24:44.4Holland Christian31.5
10Alanna Mulligan24:44.4Rockford31.5
12Hana Muzyk24:45.4Grand Rapids Catholic Central31.2
9Elisabeth Orr24:46.0Rockford31.0
11Lauren Koch24:46.7St. Joseph30.8
10Hailey Zuniga24:48.2Whitehall30.3
12Katie Post24:49.7Zeeland East29.8
9Daphne Deaton24:50.4Hudsonville29.5
11Georgia Rotman24:50.9Hudsonville Unity Christian29.4
10Emmy Willemin24:51.1Forest Hills Central29.3
9Rachel Baxter24:52.3Hudsonville28.9
10Maija Carlson24:52.4Rockford28.9
9Natalie Kooyer24:53.1Hudsonville Unity Christian28.6
10Gina Mehling24:53.8Rockford28.4
10Aubrey VanArtsen24:54.1Caledonia28.3
9Lauren Hills24:54.2Hudsonville28.3
10Allie Sensing24:54.2Caledonia28.3
12Sara Stanley24:56.0Hudsonville27.7
10Lydia DeCook24:56.3Grandville27.6
12Eevi Eskola25:01.2Grand Rapids Northview26.0
10Hannah Barone25:02.0Jenison25.7
12Emma Sweeney25:04.8Rockford24.7
10HannahGrace Wildsc…25:06.1Grand Rapids Christian24.3
11Kira Smith25:07.8Grand Rapids Ottawa Hills23.7
9Jaighdyn Fyolek25:09.4Grand Rapids Catholic Central23.2
11Rylee Cohoon25:10.4Lake City22.9
12Zoe Spasaro25:11.0Hudsonville22.7
9Ally Wiersma25:11.9Hudsonville22.4
9Kylie Loefhelm25:12.6Forest Hills Northern22.1
12Kylie Raynor25:13.0Muskegon Reeths-Puffer22.0
12Emily Mazurkiewicz25:13.0Muskegon Reeths-Puffer22.0
12Kaitlyn Dryburgh25:14.9Caledonia21.4
10Sela Fitzell25:15.3Caledonia21.2
12Melany Cattaneo25:16.7Plainwell20.8
9Ava Fisher25:18.1Jenison20.3
9Shauna McLean25:20.4McBain19.5
11Bella Dykstra25:20.5Holland Christian19.5
9Grace Fenton25:21.1Holland Christian19.3
9Madelyn VanDort25:21.8Zeeland West19.1
10Gigi Jones25:23.0Grand Rapids Christian18.7
11Kaitlyn Aupperlee25:24.0Grand Rapids Christian18.3
12Tiffany Pham25:24.2East Kentwood18.3
11Alison Jakobi25:26.7Muskegon Reeths-Puffer17.4
9Sierra Grooters25:26.8Hudsonville Unity Christian17.4
11Hallie Kooyer25:29.4Hudsonville Unity Christian16.5
10Laura Groner25:30.0Plainwell16.3
10Maddie Bosch25:30.0Hudsonville Unity Christian16.3
10Emma Kusmierski25:30.3Grandville16.2
12Jordan Fox25:30.6Lake City16.2
11Lily VanderZwaag25:31.4Hudsonville Unity Christian15.9
10Clarissa Hernandez25:31.8East Kentwood15.7
9Alison Vandyke25:34.1Plainwell15.0
10Sage Jarmosco25:34.5Grand Haven14.8
10Helena Jolliffe25:35.3Rockford14.6
10Brianna Agon25:36.3Grand Rapids Catholic Central14.2
12Lindsey Dip25:38.1Grandville Calvin Christian13.7
10Abbie Wiegers25:41.2North Muskegon12.6
11Elizabeth Chamberl…25:41.6Rockford12.5
12Katie Ostoin25:44.5Muskegon Reeths-Puffer11.5
9Ana Heagle25:47.0Grand Rapids Christian10.7
9Adrienne Fluette25:50.1Muskegon Reeths-Puffer9.7
9Miriam Dykstra25:51.2Grand Rapids Ottawa Hills9.3
12Georgia Hill25:52.1Kalamazoo Loy Norrix9.0
11Makena Plummer25:52.4Muskegon Reeths-Puffer8.9
10Emma Larkin25:52.8Zeeland West8.8
10Saniya Mishra25:52.9Forest Hills Central8.7
10Diana Bisono-Balag…25:58.2Caledonia6.9
9Julianne Mouw25:58.4Hudsonville6.9
9Mia Powell25:58.6Grand Rapids Christian6.8
9Nikki Geenen25:58.6Holland Christian6.8
12Amy Valle-Cedillo25:59.5East Kentwood6.5
11Heidi Spahr26:02.5Zeeland West5.5
10Alyssa Seinen26:02.8Hudsonville Unity Christian5.4
9Ayla Meier26:04.2Holland Black River4.9
9Savannah Thelen26:04.2Holland Black River4.9
9Christina Waldmiller26:05.4Caledonia4.5
11Rylee Sluiter26:05.9Zeeland East4.4
10Maddie Rose26:06.4Plainwell4.2
9Clarice VanDort26:07.6Zeeland West3.8
9Kassey Pachulski26:10.6Grandville2.8
12Angela Kuiper26:10.9Holland Christian2.7
10Grace Barber26:13.0Forest Hills Central2.0
9Hannah Dupuis26:16.3Caledonia0.9
11Ella McCrumb26:17.1Grandville0.6
12Megan Knuth26:18.6Big Rapids0.1
11Evelyn Gifford26:19.0Portage Central0.0
9Brooke Hodges26:19.1Jenison0.0

GradeNameTimeTeamRating
10Seth Norder15:56.5Grand Haven205.5
11Benne Anderson16:00.5Grand Rapids Ottawa Hills204.2
11Nolan Clark16:01.0Grand Haven204.0
12Caden Meyer16:05.1Zeeland East202.6
11Colin Graham16:06.1Rockford202.3
12Juan David Hernandez16:09.2Grand Rapids Ottawa Hills201.3
12Cole Weston16:13.1Lowell200.0
12Zac Zemba16:14.2Grandville199.6
12Tinsae Nelson16:19.2Grand Rapids Christian197.9
12Ben Zwart16:19.9Grand Rapids Christian197.7
11Nathan Jenkins16:33.6Grandville Calvin Christian193.1
12Sam Yeager16:36.5Forest Hills Central192.2
12Kyle Sweeney16:38.7Rockford191.4
12Eli Veen16:39.6Plainwell191.1
11Ethan Krampe16:41.2Forest Hills Central190.6
11Joshua Gormley16:41.4Portage Central190.5
11Logan Vining16:45.1Grand Haven189.3
12Caleb Heid16:46.5Portage Central188.8
11Gavin Wiersma16:49.5Zeeland East187.8
10Cole Visser16:53.6Jenison186.5
11Chase Holwerda16:55.0Zeeland West186.0
10Logan Begeman16:55.1Portage Central186.0
12Jackson Fowler16:57.2Lowell185.3
12TJ Mellema16:59.1Rockford184.6
11Ben Hunter17:01.1Portage Central184.0
11Benjamin Bromley17:01.3Lowell183.9
12Ryan Ososki17:01.9Big Rapids183.7
12Antonio Hall17:02.9East Kentwood183.4
10Jaxon Allen17:03.4Muskegon Reeths-Puffer183.2
12Nolan Tribu17:05.3Kalamazoo Loy Norrix182.6
11Nathan Golding17:07.4Zeeland West181.9
11Ethan Smith17:10.3Jenison180.9
9Ben Held17:11.0Grand Haven180.7
11Caleb Smith17:11.1Zeeland West180.6
12Keegan Cater17:12.3Lowell180.2
11Charles Lewis17:12.9Rockford180.0
12Carson Lafferty17:13.0Rockford180.0
12Erickson Kunzler17:13.1Grand Rapids Catholic Central180.0
12Connor Lubberts17:16.9Jenison178.7
11Will Fiesbeck17:17.7St. Joseph178.4
12Jonathan Tysman17:17.9Grand Haven178.4
11Reuben Wiering17:18.4Grand Rapids Christian178.2
12Dan Kehoe17:18.9Grandville Calvin Christian178.0
10Nick Cabrera17:19.3Portage Central177.9
11Gavin Voetberg17:19.9Portage Central177.7
11Nick Riemersma17:23.9Zeeland East176.4
9Simon Triezenberg17:24.3Grand Rapids Christian176.2
11Andre Richmond17:25.5Whitehall175.8
10Parker Ludwig17:27.0Forest Hills Central175.3
12Mitchell Goerge17:28.3Forest Hills Northern174.9
9Seth Conner17:28.9Jenison174.7
12Gavin VanSolkema17:29.9Hudsonville Unity Christian174.4
11Ryan Kamp17:31.2Grand Rapids Northview173.9
11Levi Mills17:32.8Lowell173.4
11Brendan Wangler17:36.6Jenison172.1
10Shay White17:36.7St. Joseph172.1
12Joe Schellenberg17:37.9Forest Hills Northern171.7
9Nick Moll17:37.9Grand Rapids Catholic Central171.7
12Brandon Roach17:38.4Rockford171.5
10Hudson Kemperman17:38.8Forest Hills Northern171.4
12Logan Manion17:41.2Grandville Calvin Christian170.6
12Thomas Richards17:41.5Traverse City St. Francis170.5
10Pranit Koppolu17:41.7Forest Hills Northern170.4
12Eric Giles17:42.0East Kentwood170.3
9Sawyer McCarthy17:44.0Forest Hills Central169.7
10Justin Clement17:45.0Jenison169.3
12Brian Langlois17:45.5Grand Rapids Catholic Central169.2
12Preston Sokolowski17:46.4Forest Hills Northern168.9
9Kye Grant17:46.6Muskegon Reeths-Puffer168.8
12Riley Buys17:46.8Whitehall168.8
11Will Shults17:48.3Grandville168.2
10Bruno Cabera17:48.4Portage Central168.2
12Jacob Simmons17:48.5Portage Central168.2
11Josh Kerr17:49.0Traverse City St. Francis168.0
9Spencer Porter17:51.0Forest Hills Northern167.3
10Joe Waalkes17:51.1Grand Rapids Christian167.3
11Jude Meldrum-Roy17:52.0North Muskegon167.0
11Sam Majoor17:54.2Rockford166.3
12Alex Weber17:55.0Lowell166.0
10Tucker Krumm17:55.2Traverse City St. Francis165.9
11Austin Winkle17:56.3Jenison165.6
10Joseph Till17:56.7Zeeland West165.4
9Mason Lucas17:57.4Jenison165.2
11Carter McIlroy17:57.8Whitehall165.1
11Connor McIntyre17:59.3Traverse City St. Francis164.6
11Landon Wade17:59.7East Kentwood164.4
11Owen Lawrence18:00.0East Kentwood164.3
9Jeb Hillary18:00.7Grand Rapids Catholic Central164.1
12Nolan Meier18:03.3Holland Black River163.3
10Carson Hauch18:04.2Zeeland West163.0
10Antonio Casarez18:06.0Lowell162.3
10Gavin Betten18:06.2Rockford162.3
11Blake Elliot18:07.1Caledonia162.0
11Sam Allen18:07.2Kalamazoo Loy Norrix161.9
10Rodrique Shema18:07.3East Kentwood161.9
10Jonathan Koetje18:09.0Grand Rapids Christian161.3
10Nate Fahey18:11.3Rockford160.6
9Matthew Schwartz18:13.4Jenison159.9
12Evan Klein18:14.4Lowell159.5
9Trevor Timmer18:14.7Forest Hills Central159.4
11Will Marth18:14.7Jenison159.4
9Kort Thompson18:17.4Caledonia158.5
9Jacob Sanford18:18.5Forest Hills Central158.2
10Jack DeKruyter18:18.7Zeeland West158.1
10AJ Sneller18:18.8Zeeland West158.1
12Jonathan Fay18:18.9Forest Hills Northern158.0
12Gerrit VandenBosch18:19.6Forest Hills Northern157.8
11William Hyson18:20.8Jenison157.4
12Blake Bennett18:23.2Lowell156.6
11Roger Hernandez18:23.3Holland Black River156.6
10Luke Bobrowski18:24.0Traverse City St. Francis156.3
10Ryan Sutherlund18:24.1Forest Hills Central156.3
9Andrew Joelson18:24.8Forest Hills Northern156.1
11Mathieu Northuis18:28.2Portage Central155.0
11Judge Morgan18:28.9Traverse City St. Francis154.7
12Nathan Decker18:30.2Forest Hills Central154.3
11Ben Knuth18:30.7Big Rapids154.1
12Logan Vernia18:30.7Allegan154.1
12Gabe TerHaar18:32.6Jenison153.5
11Evan Kornoelje18:32.9Grandville153.4
11Colton Ruster18:36.5Zeeland West152.2
11Dannion Simmet18:37.3Lowell151.9
9Matthew Long18:37.7Portage Central151.8
11Calvin Ruffini18:39.0Forest Hills Northern151.3
11Logan Hough18:39.1Grand Haven151.3
9Isaac Tanis18:39.5East Kentwood151.2
12John Bandstra18:39.5Grand Haven151.2
10Claydon Ingleright18:40.3McBain150.9
12Noah Miller18:41.4Jenison150.5
12Ben Elkins18:42.9Zeeland West150.0
9Andrew Wangler18:43.4Jenison149.9
11Austin Miller18:44.6Rockford149.5
11Liam Peterson18:45.0Rockford149.3
9Parker Strelecki18:45.0Jenison149.3
11Culver Neldon18:46.0Allegan149.0
11Karl Kepler18:48.2Grandville148.3
10Connor Gabel18:48.2Grand Haven148.3
12Jacob Heeringa18:48.4Traverse City St. Francis148.2
11Elliott Clayton18:48.7Rockford148.1
10Peter Kuperus18:49.9Grand Rapids Christian147.7
10Samuel Pugh18:51.1Caledonia147.3
10Nat DeWaard18:51.8Forest Hills Northern147.1
11Rhys Sandman18:52.6Lowell146.8
12James Held18:53.0Grand Haven146.7
10Ayden Duffin18:53.1Caledonia146.6
10Chace Laarman18:53.4Zeeland West146.5
11Ian Mahoney18:54.0Forest Hills Central146.3
11Tony Stevenson18:57.0Traverse City St. Francis145.3
11Eric Sorrell18:57.0Caledonia145.3
12Joey Shotts18:58.0Jenison145.0
10Andrew Dalman18:58.7Zeeland West144.8
11Kyle Martin18:58.8St. Joseph144.7
10Evan Atkinson-miller18:58.8North Muskegon144.7
12Evan Hebreard19:02.4Forest Hills Northern143.5
9Ethan Miller19:03.3Hudsonville Unity Christian143.2
11Tommy Skendzel19:04.6Traverse City St. Francis142.8
9Benjamin Hoekstra19:04.7Hudsonville Unity Christian142.8
11Owen Cousins19:05.7Zeeland West142.4
12Paul Dailey19:07.0Caledonia142.0
11Jacob Mertes19:07.3Rockford141.9
12Braedon Veurink19:07.6Hudsonville Unity Christian141.8
9Karsten Huisman19:08.2Holland Christian141.6
11Sam Strabbing19:08.3Holland Christian141.6
9Aidan Brinks19:08.3Holland Christian141.6
9Will Engbers19:08.4Holland Christian141.6
11Conner Hunt19:11.3Rockford140.6
9Evan Nickoles19:11.4East Kentwood140.5
12Luca Pham19:12.8Jenison140.1
11Gordon Schneider19:13.6Grand Haven139.8
9Olivia Beauchamp19:14.9Big Rapids139.4
9Lewis Walter19:15.1Traverse City St. Francis139.3
11Luke Lehner19:16.0St. Joseph139.0
9Nathan Chapin19:16.2Jenison138.9
11Tyler Nethercot19:16.2Forest Hills Northern138.9
9Caden Guffey19:16.2Zeeland East138.9
12Matthew Koeman19:17.6Holland Black River138.5
10Levi Moss19:17.9Caledonia138.4
11Avery Jura19:18.8Whitehall138.1
10Joshua Scott19:19.2St. Joseph137.9
10Madonna Travis19:19.5Grand Rapids Northview137.8
10Oummu Kabba19:20.3East Kentwood137.6
11Anthony Lawlor19:21.5Caledonia137.2
11Joey McClelland19:21.9Forest Hills Northern137.0
11Nate Oosterhouse19:22.3Hudsonville Unity Christian136.9
9Caleb DenHartigh19:22.4Hudsonville Unity Christian136.9
12Grady Schneider19:23.0Caledonia136.7
12Chase Layman19:23.9Grand Haven136.4
9Henry Cox19:24.6Plainwell136.1
10Mason Landes19:24.6Zeeland East136.1
10Dominic Cranmer19:25.3Zeeland West135.9
9Maclin Stidolph19:25.5East Kentwood135.8
12Bret Kendall19:25.7Forest Hills Northern135.8
12Jasper Casamento19:26.8Grand Rapids Christian135.4
12Ben Vongprachanh19:27.2Zeeland West135.3
10Nathan Koetje19:27.8McBain135.1
11Reece Ondersma19:28.0Jenison135.0
9Cameron Weibel19:29.4Caledonia134.5
11Tyler Dickinson19:29.6Whitehall134.5
10Zach Boehr19:30.6Lowell134.1
11Micah Witham19:31.1Whitehall134.0
11Rowan Jansen19:31.5Grand Rapids Christian133.8
12Jake Salvano19:32.8St. Joseph133.4
12Jackson Gibney19:32.9Grandville133.4
11Thai Nguyen19:33.7Plainwell133.1
11Silas Lorenz19:34.2St. Joseph132.9
9Jayden VanStensel19:34.2Grand Rapids Northview132.9
9Carter Petzke19:34.2St. Joseph132.9
9Noah Schuette19:34.5Rockford132.8
11Braylon Anderson19:35.3Grandville132.6
12Caleb Ewald19:37.6Holland Black River131.8
9Gabe Hillary19:38.2Forest Hills Northern131.6
9Keegan Hoekstra19:38.8Grand Rapids Christian131.4
9Parker Schramski19:39.0Forest Hills Northern131.3
11Oscar Woedenhoeft19:39.2Kalamazoo Loy Norrix131.3
11Ephraim Dykstra19:39.3Hudsonville Unity Christian131.2
9Dominic Otto19:40.7Jenison130.8
10Paxton Hall19:40.7Lake City130.8
9Dakotah Dreyer19:40.9Jenison130.7
10Maxwell Krausman19:42.0Rockford130.3
11Parker Maciejewski19:42.1North Muskegon130.3
11Todd Leatherman19:43.2Hudsonville Unity Christian129.9
12Kobe Sackett19:43.9Kalamazoo Loy Norrix129.7
10Isaiah Olivarez19:43.9Forest Hills Northern129.7
12Cole Ingleright19:45.7McBain129.1
12Jacob Taylor19:46.3Zeeland West128.9
12Spencer Koch19:46.3Allegan128.9
12Joe Allen19:46.6Allegan128.8
12Ryan Larson19:47.8Grand Haven128.4
12Matthew Goodrich19:49.9Forest Hills Northern127.7
11Nick Thuente19:50.8Traverse City St. Francis127.4
12Sam Perton19:51.1Holland Christian127.3
11Alexander Darling19:51.9Forest Hills Northern127.0
10Lasse Hagenow19:52.4Forest Hills Northern126.9
9Eli Johansen19:52.5St. Joseph126.8
9Carson Berko19:52.9Grand Haven126.7
9Mason Dhaseleer19:53.0Forest Hills Northern126.7
12Ryan Hough19:55.0Grand Haven126.0
11Jack Novotny19:57.3Kalamazoo Loy Norrix125.2
9Ethan Buer19:57.7Caledonia125.1
11Blake Knox19:57.7Traverse City St. Francis125.1
12Wyatt Foerch19:59.9Caledonia124.4
12Quinten Burlew19:59.9Jenison124.4
9Jacob Barnes20:00.5Forest Hills Central124.2
11Robert Horton20:00.5Rockford124.2
10Danny Ewing20:01.0Kalamazoo Loy Norrix124.0
10Brogan Hayes20:01.5Grand Haven123.8
9Grady Bremer20:01.5Hudsonville Unity Christian123.8
10Ben Vitkauskas20:02.8Rockford123.4
10Oliver Town20:03.2Forest Hills Northern123.3
12Donovan Sanchez20:04.6East Kentwood122.8
12Cristian Huerta20:04.8Kalamazoo Loy Norrix122.7
11Luke Meyer20:05.8Grandville122.4
12Jaden Henderson20:05.9Jenison122.4
10Trevor Dornbos20:07.0Grandville Calvin Christian122.0
10Braden Dalm20:08.0North Muskegon121.7
10Brady VerBeek20:08.2Zeeland West121.6
11Connor Gaylord20:08.6Plainwell121.5
10Asher Harrmann20:08.7St. Joseph121.4
10Ethan Nguyen20:08.7Zeeland East121.4
11Dean Kauffman20:09.6Rockford121.1
11Jared Leitch20:09.6Rockford121.1
11Edwin Castillo20:10.1Plainwell121.0
10Hayden Bolter20:10.7Forest Hills Central120.8
12Aiden McGavin20:10.7Grand Rapids Catholic Central120.8
11Ryan Karwowski20:11.2Rockford120.6
12Daniel Armas20:11.3Hudsonville Unity Christian120.6
12Bjorn Vetne20:11.9St. Joseph120.4
10Nathan Reeves20:13.5Muskegon Reeths-Puffer119.8
12Jack Paras20:13.8Rockford119.7
10Alex Mochel20:15.4Forest Hills Northern119.2
9Lizzy Carillo20:16.7Grandville118.8
11Savian Tarrant20:17.0Traverse City St. Francis118.7
11Owen Quayle20:17.5Kalamazoo Loy Norrix118.5
11Owen Hein20:18.3St. Joseph118.2
12Henry Berghoef20:20.4Holland Christian117.5
9Hudson VanOstenberg20:20.8Rockford117.4
12Peter VanderPloeg20:21.4Holland Christian117.2
9Jack Baltes20:21.8Jenison117.1
9Colin Taylor-DeNoo…20:22.1Holland Christian117.0
9Brayden Rynsburger20:22.6Holland Christian116.8
10Dylan Walters20:22.7Zeeland East116.8
11Aydan Vandyk20:23.8Forest Hills Northern116.4
12Elisha Fedisoni20:23.9Grand Rapids West Catholic116.4
11Nathan DeWitt20:24.5Holland Christian116.2
9Stewart Waters20:25.4Whitehall115.9
9CJ Bennett20:25.5North Muskegon115.8
12Nolan Reynolds20:25.8Caledonia115.7
9Benjamin Slagter20:27.7Jenison115.1
9Zachary Brown20:29.1East Kentwood114.6
9Riley Pattinson20:29.2Traverse City St. Francis114.6
12Jacob Bissell20:29.4Rockford114.5
9Max Corbat20:30.4Grand Haven114.2
11Luke Marsman20:30.7Hudsonville Unity Christian114.1
12Ross Fiske20:32.8Rockford113.4
11Ryan Donnell20:34.0Traverse City St. Francis113.0
9Kyan Deam20:34.5Big Rapids112.8
9Evan Miedema20:35.0Hudsonville Unity Christian112.7
11Harrison Stidolph20:36.4East Kentwood112.2
11Logan Smith20:36.8Jenison112.1
11Antonio Espinosa20:37.9Rockford111.7
9Andrew Boeringa20:39.0Whitehall111.3
10Braylon Iakiri20:39.2Lowell111.3
9Joshua Maier20:39.4Caledonia111.2
9Aidan Edgar20:39.6Caledonia111.1
10Joel Hardesty20:41.7Big Rapids110.4
9Olin Kasperowicz20:42.5Traverse City St. Francis110.2
12Miles Simundo20:43.8Caledonia109.8
9Cameron Wright20:43.8Caledonia109.7
9Zach Hartemink20:44.0Grand Rapids Christian109.7
9Christian Huizenga20:44.3Holland Christian109.6
9Nathan Steen20:44.4Holland Christian109.5
12Devon Heckathorn20:44.6Grand Rapids Catholic Central109.5
12Adrian Cooney20:44.7Holland Christian109.5
9Owen Read20:44.8Traverse City St. Francis109.4
10Kaden Abrahamson20:45.0McBain109.3
10Ethan Shealy20:45.3Grandville109.2
9Owen Stimer20:47.1Holland Black River108.6
12Carl Jaeger20:47.8Grand Haven108.4
10Ben Post20:48.9Zeeland East108.0
10Canaan Hogan20:49.1Kalamazoo Loy Norrix108.0
10Ethan Le20:49.1East Kentwood108.0
11Davis Laubaugh20:49.7Grandville107.8
9Kaiden Murdoch20:50.0Grandville107.7
9Evan Murphy20:50.3Grand Rapids West Catholic107.6
10Tyler Bakhuyzen20:51.4Hudsonville Unity Christian107.2
10Noah Britton20:52.8Jenison106.8
10Jakob Sorensen20:53.6Forest Hills Northern106.5
9Dylan Veltema20:53.8Zeeland East106.4
12Grant Bell20:54.3Grand Haven106.2
12Ashton Grifhorst20:55.1Grandville106.0
10Jacob Hallenbeck20:56.3Rockford105.6
9Nik Williams20:57.6Grand Rapids Ottawa Hills105.1
12Zachary Burgess20:57.6Caledonia105.1
12Blaze Van Noord20:58.1Muskegon Reeths-Puffer105.0
11Mitchell Winks20:59.1Grand Rapids Christian104.6
9Micah Derks21:03.0Jenison103.3
10Dominik Lamberts21:03.1Jenison103.3
10Alexander Bunker21:03.1Forest Hills Northern103.3
12Gavin Grabill21:03.6Big Rapids103.1
9Kelvin Kepler21:05.9Grandville102.4
12Kirgin Tanis21:06.8Grand Rapids Northview102.1
9Devon Lauters21:09.8Grandville101.1
12Trent Jacobs21:10.5Plainwell100.8
12Zach Dole21:10.6Grandville Calvin Christian100.8
12Dillon Vliestra21:11.9Plainwell100.4
10Liam Troutner21:12.3Plainwell100.2
9Jacob Marth21:13.2Jenison99.9
9Ethan Henry21:13.3Jenison99.9
11Isaac Everett21:14.4Plainwell99.5
9Dylan Choura21:15.6Forest Hills Central99.1
9Jonathan Greenhoe21:16.7Zeeland West98.8
9David Potgeter21:18.2Caledonia98.3
10Justin Pham21:18.5East Kentwood98.2
10Landon Long21:20.0Rockford97.7
9Noah Zelinski21:21.7Traverse City St. Francis97.1
12Luke Schmidt21:22.3Hudsonville Unity Christian96.9
10Trey Bringedahl21:23.6Rockford96.5
9Harris Kehr21:24.8Grand Rapids Ottawa Hills96.1
10Kalum Carroll21:25.3Rockford95.9
9Nolan Pike21:25.4Caledonia95.9
9Sam Downing21:26.9Zeeland East95.4
11Peter Maddox21:28.1Lake City95.0
12Ewan Jolliffe21:31.2Grand Rapids Christian93.9
11Levi Fritz21:32.3Plainwell93.6
10Parker Hume21:32.8St. Joseph93.4
12Angelo Navarrete21:33.6Zeeland West93.1
10Paul Skendzel21:33.8Traverse City St. Francis93.1
11Kamdyn Hawkins21:34.3Forest Hills Central92.9
11Nick Zwiers21:34.4Grand Rapids Christian92.9
12Elliot Stielstra21:34.7Holland Christian92.8
11Blake Bouwman21:34.9Grand Rapids Christian92.7
11Carson Millspaugh21:35.3Holland Christian92.6
10Matthias Hams21:36.4Whitehall92.2
11Connor Bing21:37.8Zeeland East91.7
10Brayden Czarnecki21:37.9Jenison91.7
11Seth VanOss21:38.1Grand Rapids Christian91.6
10Nathan Baker21:39.6Grand Rapids Christian91.2
9Emmet Lorenz21:41.4St. Joseph90.5
11Aidyn Underwood21:42.3Allegan90.2
11Liam Manders21:43.5Forest Hills Central89.8
9Christien Fanta21:43.8Forest Hills Northern89.7
12Hunter Mossel21:44.7Big Rapids89.4
11Trevor Vanskiver21:46.8Forest Hills Central88.7
11Logan Tyson21:49.7North Muskegon87.8
10James Thorpe21:50.9Jenison87.4
9Charles Brooks21:51.4Grand Rapids West Catholic87.2
9Joshua Kendall21:54.8Forest Hills Northern86.1
11Sawyer Childs21:55.5Allegan85.8
12Clay Oosterhouse21:55.7Big Rapids85.8
12Evan VanDyke21:58.9Zeeland West84.7
9Henry Schwarze22:00.8Forest Hills Central84.1
10Austin Zoch22:02.3Allegan83.6
12Eli Mester22:02.5East Kentwood83.5
10Asher Tunnicliff22:02.6St. Joseph83.5
9Hayden Gould22:03.3Big Rapids83.2
9Jeff Dewitt22:03.4Zeeland East83.2
9Elijah VanSkiver22:05.0Forest Hills Central82.7
10Liam Price22:06.7Grand Rapids Northview82.1
10Jack Miller22:06.9Grand Rapids Ottawa Hills82.0
12Mario Aledo22:08.0Forest Hills Northern81.7
10Simon Grooters22:08.3Hudsonville Unity Christian81.6
12Ethan Pyscher22:08.5Caledonia81.5
12Nick Engel22:08.7Rockford81.4
11Tristan Barnett22:09.8Allegan81.1
9Ben Atkins22:10.5Lowell80.8
9Alejandro Guzman-M…22:10.6East Kentwood80.8
10David Scharich22:12.9St. Joseph80.0
10Zach Kern22:13.7Holland Christian79.8
10Josiah Meyers22:13.7Holland Christian79.8
9Calvin Brinks22:14.6Grand Rapids Christian79.5
9Jacob Voetberg22:14.6Grand Rapids Christian79.5
10Abram Longcore22:15.4Plainwell79.2
12Sam Nicely22:16.2Holland Christian78.9
9Wyatt Remar22:18.0Lowell78.3
9Aiden Kasprzak22:18.5Grand Rapids Catholic Central78.2
10Dylan Norton22:20.1Grand Rapids Northview77.6
9Quinn Mitchell22:20.7Lowell77.4
10Isaac Veen22:21.0Plainwell77.3
11Jason Bos22:22.2Holland Christian76.9
9Gabriel Comp22:23.2Lake City76.6
9Jacob Hector22:23.6Grandville76.5
11Josh Hector22:25.4Grandville75.9
9Paul Fowler22:27.1Lowell75.3
12Grant Kahler22:27.7Kalamazoo Loy Norrix75.1
10Zander Gordon22:30.1Hudsonville Unity Christian74.3
12Patrick Hamilton22:30.7Grand Rapids Catholic Central74.1
9David Oetman22:31.8Allegan73.7
10Vyacheslav Yuguy22:32.1Rockford73.7
9John Studzinski22:34.2Traverse City St. Francis72.9
9Billy Pipkorn22:34.4Plainwell72.9
11Matt Bouwhuis22:37.8Grand Rapids West Catholic71.7
10Luke Piersma22:39.5Grandville Calvin Christian71.2
10Cameron Handwerker22:40.5Rockford70.8
9Scout Wetzel22:41.4Lake City70.5
10Jacob Vandervelde22:42.0North Muskegon70.4
11Keiton Fase22:42.1Rockford70.3
12Bradley Springberg22:46.9McBain68.7
9Parker VanHill22:47.1Grand Rapids Christian68.6
10Nicholas Cabrera22:47.5Allegan68.5
9Gage Bouwman22:47.7Muskegon Reeths-Puffer68.4
9Talen Verburg22:49.6Caledonia67.8
9Jakob Terpstra22:50.2Forest Hills Central67.6
9Ryan Hatfield22:50.3Forest Hills Central67.6
9Armand Arakaza22:55.1Grand Rapids Christian66.0
11Caleb Huizenga22:55.4Grand Rapids West Catholic65.9
9Tim O’Brien22:56.5Grand Rapids West Catholic65.5
9Zac Taylor22:58.6Traverse City St. Francis64.8
9Josh Stempien22:59.1Plainwell64.6
9Corey Sandman23:07.4Lowell61.9
10Nate Darling23:07.5Muskegon Reeths-Puffer61.8
11Brady Read23:08.2Traverse City St. Francis61.6
12Gavin Van’tHof23:09.1Grand Rapids Northview61.3
12Alex Barnes23:10.8Forest Hills Northern60.7
11Mason Duff23:11.0Allegan60.7
11Levi VanderSloot23:12.3Grand Rapids Christian60.2
12Trenton Barone23:12.9Big Rapids60.0
11Adam Spees23:13.3Caledonia59.9
11Charlie Grimm23:13.3Rockford59.9
9Jacob Kuipers23:14.0Hudsonville Unity Christian59.7
12De’Cary Spuric23:14.5East Kentwood59.5
10Jordan Alvarez23:17.6Hudsonville Unity Christian58.5
11Evan Fitzjohn23:18.0Forest Hills Northern58.3
10William Venneman23:19.5Forest Hills Northern57.8
12Conner Veen23:21.0Grandville57.3
12Arien Baroi23:21.1Holland Christian57.3
11Caleb Demaster23:21.2Holland Christian57.3
10Brayden Griffin23:23.5St. Joseph56.5
11Andrew Miller23:27.6Plainwell55.1
11Eli Mulder23:28.6Grandville Calvin Christian54.8
9Elijah Stevens23:31.9Grandville53.7
9Lincoln Vetne23:33.3St. Joseph53.2
9Dallas Chamberlain23:34.4McBain52.9
9Andrew Tava23:37.3Caledonia51.9
12Evan Elzinga23:44.0Forest Hills Central49.7
10Algis Baliunas23:45.5St. Joseph49.2
9Lucas Licari23:46.4Grandville48.9
9Tyler Davis23:48.7Grand Rapids Christian48.1
10Keyshawn Liggins23:49.3Kalamazoo Loy Norrix47.9
10Caleb Boersen23:50.4St. Joseph47.5
11Cooper White23:55.7St. Joseph45.8
12Max Tran23:56.5Grand Haven45.5
11Diego Rodriguez-23:56.6Forest Hills Northern45.5
10Brendan McIntyre23:58.7Traverse City St. Francis44.8
12Alex Hyma24:11.2Jenison40.6
11Michael Caserta24:18.8Big Rapids38.1
10Joe Korcek24:19.7Lowell37.8
10Ian Dorey24:20.2Big Rapids37.6
9Grayson Borick24:22.9Kalamazoo Loy Norrix36.7
9Cooper Royce24:23.7Grandville36.4
12John Riddering24:25.3Grandville Calvin Christian35.9
10David Meeker24:30.4Plainwell34.2
11Landon Battle24:31.6Lowell33.8
10Campbell Brooks24:37.5Allegan31.8
9Zachary Hyatt24:37.8Whitehall31.7
12August Christensen24:40.9Grand Rapids West Catholic30.7
12Nick Picardat25:00.5Traverse City St. Francis24.2
9Noah DeRosia25:03.2Caledonia23.3
12Josh Blades25:06.3Plainwell22.2
9Luke Witte25:08.7Grand Rapids Christian21.4
11John Hirsh25:11.9St. Joseph20.4
Emilio Bultman25:26.6Rockford15.5
9Kenyon Brooks25:26.6Grandville15.5
10Andrew Quint25:28.1Grand Rapids Catholic Central15.0
9Carter Hausman25:30.4Kalamazoo Loy Norrix14.2
9Jake Parzych25:31.5Forest Hills Northern13.8
9Cash Newton25:34.3Kalamazoo Loy Norrix12.9
9Anthony Spicer25:38.4Grandville11.5
11Samuel Rysko25:38.7Jenison11.4
10Diego Dejong25:48.0Forest Hills Northern8.3
9John Hawver25:51.8Kalamazoo Loy Norrix7.1
9Jason Shaendorf26:00.6Grand Rapids Catholic Central4.1
9Brody Benjamin26:00.8Caledonia4.1
10Alex Stocke26:05.7Zeeland West2.4
9Henry Stone26:07.2Grandville1.9

Leave a Reply

Fill in your details below or click an icon to log in:

WordPress.com Logo

You are commenting using your WordPress.com account. Log Out /  Change )

Google photo

You are commenting using your Google account. Log Out /  Change )

Twitter picture

You are commenting using your Twitter account. Log Out /  Change )

Facebook photo

You are commenting using your Facebook account. Log Out /  Change )

Connecting to %s